Location: Belvedere Heights
(33.9836°N, 117.3109°W)
Time: 06:32:45
(UTC+00:00)

POLYITAN 1 - Pass Details

Date: 26 May 2024
Orbit: 548 x 570 km, 98.1° (Epoch: 13 June)

Event Time Altitude Azimuth Distance (km) Brightness Sun altitude
Rises 11:06:50 0° 13° (NNE) 2,744 ? -17.0°
Reaches altitude 10° 11:08:59 10° 14° (NNE) 1,842 ? -16.7°
Maximum altitude 11:12:58 81° 101° (ESE) 564 ? -16.1°
Enters shadow 11:15:33 21° 189° (S) 1,266 ? -15.7°
